Wind_Speed
47 48 49 51 52 53 55 57 58 58 61 63 61 59 61 66 70 67 67 67 71 73 69 61 57 55 53 52 52 53 55 56 57 56 55 59 62 62 66 69 69 69 70
50 50 50 53 55 56 57 59 60 60 60 60 61 61 64 69 67 68 69 70 73 72 59 56 53 52 48 47 47 47 47 47 46 48 49 49 50 53 58 61 62 66 70
52 52 53 54 56 56 56 58 59 57 59 59 60 63 69 67 68 68 68 72 70 65 56 54 52 47 44 43 42 40 40 38 39 40 42 44 45 43 43 48 52 56 60
53 54 56 57 54 55 56 56 58 59 60 62 63 68 67 70 70 68 69 68 60 58 57 53 50 44 42 41 39 38 36 34 34 34 35 38 39 41 40 40 41 43 44
58 57 57 56 56 55 56 56 58 61 63 64 67 68 71 68 68 68 67 64 53 51 53 52 51 46 40 36 35 36 33 29 27 28 30 31 31 32 32 33 34 34 34
56 57 57 57 56 55 55 57 59 61 65 67 71 72 70 70 68 70 67 63 49 46 46 50 49 48 45 42 38 35 31 27 24 22 21 21 22 23 24 23 22 21 21
57 57 57 57 57 57 58 60 62 66 70 71 72 74 74 72 71 69 70 61 50 43 43 43 46 46 46 43 40 36 29 25 21 18 17 16 16 17 16 14 13 10 8
59 59 59 59 59 59 62 63 67 69 73 76 77 77 75 75 73 73 69 62 52 46 46 41 41 41 44 44 41 38 29 23 19 16 14 13 11 9 8 7 6 7 8
61 61 62 62 64 66 69 70 72 73 74 76 79 80 78 78 78 75 68 61 56 51 50 46 41 42 40 42 42 38 30 23 18 17 14 10 9 9 7 6 8 10 11
62 65 67 68 71 73 74 75 76 75 76 78 79 80 81 81 84 81 68 61 56 55 50 51 48 47 46 41 41 40 32 26 20 17 14 12 10 11 11 11 10 14 12
67 69 71 73 75 76 77 79 79 80 77 79 81 84 84 83 83 77 67 59 57 57 55 52 50 49 48 44 41 40 38 26 22 20 17 15 15 15 13 13 12 15 16
71 72 76 78 79 79 81 81 83 83 83 84 84 85 86 86 84 70 63 62 58 56 54 53 52 52 50 47 44 42 34 34 24 21 21 20 20 19 18 17 16 18 20
75 77 77 79 81 83 84 85 86 86 87 89 91 91 91 87 76 64 64 63 62 60 56 54 56 54 53 49 45 42 35 29 30 24 24 25 27 25 24 23 21 20 25
79 79 81 83 86 86 86 88 88 92 93 94 94 94 93 77 69 63 60 62 64 66 66 61 57 50 47 47 45 43 38 32 26 28 27 28 30 30 28 29 28 25 29
81 82 84 87 88 89 90 92 95 97 98 99 98 90 83 75 67 67 66 68 65 64 63 60 53 49 46 40 43 43 42 36 35 29 29 30 31 34 33 31 32 32 29
84 86 87 90 92 93 96 99 99 101 98 96 89 81 75 74 73 72 72 68 65 60 58 64 59 55 51 49 42 39 44 42 37 35 33 32 33 35 38 39 37 35 37
89 90 93 96 97 99 101 100 98 93 89 86 82 80 80 78 78 76 75 73 72 68 65 69 68 66 63 57 51 52 43 45 48 43 39 38 38 38 40 41 42 42 43
93 96 98 101 102 101 100 92 89 87 86 86 86 83 85 83 83 81 79 77 75 73 71 70 72 71 72 67 59 56 59 52 49 51 51 44 41 42 42 45 46 47 48
97 99 102 102 100 100 94 90 89 90 91 91 91 90 90 89 89 88 86 87 87 83 83 79 80 78 78 77 71 66 63 62 59 53 54 57 52 50 49 48 48 51 51
100 98 98 97 94 94 93 93 94 95 96 96 97 96 95 95 95 95 95 95 93 91 90 89 85 86 85 85 81 76 68 66 66 63 58 57 60 59 55 54 55 53 53
100 96 96 98 97 99 101 102 103 103 103 104 104 106 106 106 106 105 104 104 103 101 97 96 93 93 92 91 90 85 81 77 72 70 66 61 60 63 63 63 61 62 60
104 105 107 108 109 112 113 113 114 114 115 115 115 116 115 115 115 113 112 111 111 110 107 103 100 100 99 96 94 91 85 86 83 80 72 70 68 66 67 73 71 68 66
112 114 117 118 118 119 121 122 124 124 122 123 124 123 123 123 124 122 120 120 119 117 115 112 109 106 104 100 98 97 96 92 87 85 79 76 74 73 70 69 73 76 75
119 121 122 124 126 128 133 135 136 136 135 132 134 135 133 132 132 130 129 128 125 123 121 116 114 114 112 109 107 105 103 99 96 95 93 88 83 81 76 73 73 75 80
127 130 132 134 136 136 141 144 146 146 144 144 145 147 145 143 142 142 139 136 132 131 127 123 119 118 117 114 113 110 110 105 103 100 101 97 98 89 82 80 78 78 79
134 135 137 141 144 141 144 147 146 146 148 147 148 148 148 145 142 141 139 137 134 135 132 126 123 121 118 117 117 116 116 117 114 108 108 101 102 98 91 84 84 83 82
Wind_Direction
293 296 297 298 301 304 308 310 308 309 310 311 312 314 314 316 316 314 316 315 316 316 316 312 308 305 301 296 291 285 281 277 274 270 267 265 263 263 259 257 254 254 254
295 296 298 298 301 305 308 307 306 309 311 313 315 315 316 318 318 319 319 317 317 317 316 315 311 311 310 308 301 295 287 280 273 270 270 267 265 262 260 258 255 253 253
292 295 296 300 301 305 306 305 307 308 311 313 316 316 315 316 319 320 320 319 318 317 319 320 317 316 315 312 309 303 295 287 280 274 270 267 266 266 264 260 258 258 259
292 293 295 299 303 304 304 305 307 310 312 314 316 316 318 318 319 319 322 320 317 318 320 326 326 321 318 316 315 310 303 295 286 278 273 269 268 267 267 265 261 260 261
291 295 297 300 301 303 305 306 309 310 312 312 316 317 320 320 321 322 323 322 315 316 321 327 332 332 330 329 325 320 308 298 290 280 274 272 272 271 269 266 261 257 257
291 294 298 300 302 303 305 305 306 309 310 312 315 318 320 322 324 324 325 325 317 319 319 325 333 335 340 338 331 328 318 304 292 280 276 276 274 273 270 265 261 259 257
292 296 298 300 300 301 303 305 306 308 309 312 314 318 319 322 324 326 325 324 322 321 324 324 329 337 339 340 335 329 324 314 301 291 281 275 274 272 271 265 257 247 235
292 295 296 298 298 298 300 303 305 307 309 312 314 316 321 323 326 326 325 322 320 323 328 326 324 337 340 342 340 333 327 317 307 294 283 275 263 249 223 214 203 178 180
291 293 294 296 297 299 300 302 304 306 308 310 313 317 320 322 326 326 323 320 319 322 324 329 329 333 341 343 342 337 333 323 311 297 280 250 224 207 207 200 183 178 182
290 292 293 295 296 298 300 302 302 305 306 310 313 316 318 321 324 323 321 317 317 317 321 324 327 330 334 340 343 342 336 328 313 289 265 242 229 219 219 210 201 197 195
289 292 293 295 297 299 300 302 302 304 306 308 312 314 315 318 320 318 314 312 310 313 317 319 322 324 328 331 336 339 338 330 315 292 270 249 243 242 237 223 220 218 213
289 291 293 296 298 299 300 301 303 303 305 307 309 310 313 316 317 313 306 307 309 309 312 315 318 321 322 326 328 332 332 334 319 299 279 267 256 251 245 242 238 225 218
290 292 294 296 296 298 299 300 302 303 305 307 309 311 311 314 313 305 302 302 303 306 306 308 308 310 311 315 320 324 325 324 324 302 287 277 267 259 251 250 253 242 231
290 293 294 294 295 296 299 299 301 302 304 306 307 307 310 308 306 302 299 299 301 303 304 306 307 308 306 303 308 313 317 315 312 310 293 277 272 267 259 252 255 258 239
290 291 291 293 294 296 298 299 301 302 303 304 306 306 306 303 303 301 299 299 299 302 303 302 306 310 310 304 299 300 303 305 306 296 295 286 274 268 266 262 257 254 252
289 290 290 292 294 296 298 299 300 300 302 302 303 302 302 301 300 300 301 301 301 301 303 303 303 303 305 306 306 297 295 295 294 292 286 283 280 271 266 263 262 260 256
288 289 290 293 294 295 296 297 298 299 298 299 300 298 297 297 296 296 299 300 301 300 301 299 300 303 301 302 300 299 295 292 290 284 277 282 275 272 267 264 261 260 259
289 290 291 292 293 292 292 293 294 295 295 294 293 292 293 293 293 294 295 295 294 291 295 294 291 294 297 297 295 294 296 292 287 281 280 274 274 269 267 265 263 261 258
287 287 287 289 291 292 292 291 292 292 292 291 291 291 291 292 292 292 291 291 291 290 288 290 290 289 289 291 292 290 290 290 288 281 277 276 271 268 265 261 260 260 259
288 288 288 288 289 289 289 289 290 290 289 288 288 287 287 286 286 286 287 286 287 287 288 288 286 285 285 286 287 287 286 286 286 282 278 273 271 268 262 261 259 258 256
287 288 287 287 287 287 286 286 285 285 284 284 283 283 283 283 283 284 284 285 284 284 283 283 284 284 284 283 284 286 285 283 282 280 279 276 269 263 262 262 260 256 258
286 286 285 285 285 286 286 286 285 285 285 285 284 285 285 285 284 283 282 281 282 283 283 283 283 284 283 283 283 282 281 282 282 279 278 276 270 264 260 259 260 259 255
286 286 286 286 286 285 285 284 284 284 282 282 282 281 280 281 281 280 279 279 278 278 279 281 279 278 278 278 280 280 280 281 280 278 277 275 272 266 262 258 256 256 257
284 285 285 285 284 284 284 284 283 282 282 281 281 280 279 279 279 279 279 279 278 278 278 278 278 278 277 276 276 277 277 276 276 276 276 276 272 267 263 259 257 256 255
286 286 285 284 284 284 284 283 283 282 283 281 281 280 280 279 280 279 279 279 279 277 276 276 275 275 274 274 274 274 274 273 271 270 270 271 271 267 260 259 258 256 254
287 287 285 285 286 284 284 283 281 281 280 279 280 280 279 279 279 278 277 275 275 275 274 273 272 271 268 268 268 269 271 271 270 268 269 268 267 265 261 256 256 255 254
Height
10797 10796 10794 10791 10789 10787 10784 10781 10776 10772 10769 10765 10760 10756 10749 10743 10736 10728 10721 10712 10701 10690 10679 10670 10662 10654 10646 10638 10632 10626 10622 10618 10616 10616 10618 10618 10618 10621 10623 10625 10631 10636 10641
10789 10788 10786 10783 10781 10779 10776 10772 10767 10764 10759 10755 10750 10745 10739 10732 10724 10716 10707 10698 10689 10679 10669 10660 10650 10641 10633 10625 10618 10612 10607 10604 10603 10602 10602 10603 10603 10605 10607 10610 10614 10618 10623
10782 10780 10777 10775 10773 10770 10767 10761 10758 10755 10751 10747 10742 10735 10729 10722 10715 10706 10697 10687 10677 10667 10659 10652 10641 10631 10622 10615 10608 10601 10596 10592 10591 10591 10590 10591 10591 10594 10595 10597 10601 10605 10608
10774 10771 10769 10766 10763 10759 10757 10753 10748 10746 10743 10737 10732 10725 10719 10711 10703 10695 10688 10678 10667 10659 10651 10643 10633 10623 10615 10607 10599 10593 10587 10583 10581 10580 10580 10580 10582 10583 10586 10589 10591 10594 10596
10764 10761 10758 10756 10753 10751 10748 10744 10740 10734 10731 10728 10723 10716 10709 10701 10694 10687 10680 10671 10660 10652 10644 10636 10626 10618 10609 10600 10593 10587 10581 10576 10574 10572 10572 10573 10574 10575 10577 10579 10581 10583 10586
10754 10751 10749 10747 10745 10741 10738 10733 10729 10725 10721 10718 10711 10705 10698 10691 10684 10677 10670 10664 10654 10645 10638 10629 10622 10613 10605 10596 10588 10581 10576 10572 10568 10567 10567 10567 10568 10569 10571 10572 10574 10576 10579
10743 10741 10739 10737 10734 10731 10727 10722 10718 10715 10710 10707 10703 10696 10689 10681 10674 10668 10660 10654 10648 10640 10632 10625 10618 10610 10602 10593 10585 10578 10572 10569 10566 10564 10563 10564 10564 10566 10567 10569 10571 10573 10575
10733 10731 10728 10726 10722 10719 10716 10712 10707 10704 10699 10694 10690 10685 10679 10672 10666 10658 10651 10645 10640 10634 10628 10622 10615 10609 10600 10591 10583 10576 10570 10566 10564 10563 10562 10561 10562 10564 10566 10567 10569 10571 10573
10722 10719 10716 10713 10711 10707 10704 10701 10697 10693 10688 10684 10678 10673 10667 10661 10655 10650 10643 10637 10632 10627 10622 10616 10610 10605 10599 10591 10583 10575 10569 10565 10563 10562 10561 10560 10562 10563 10565 10566 10568 10570 10572
10710 10707 10704 10702 10699 10696 10692 10688 10684 10681 10677 10671 10665 10661 10656 10652 10645 10638 10636 10628 10624 10619 10615 10610 10604 10599 10594 10590 10583 10576 10569 10565 10562 10561 10561 10561 10561 10562 10564 10566 10567 10568 10570
10698 10695 10692 10689 10686 10683 10679 10674 10670 10667 10661 10657 10653 10648 10644 10641 10636 10629 10623 10623 10618 10610 10606 10602 10597 10593 10588 10585 10582 10576 10570 10565 10563 10561 10561 10560 10561 10561 10563 10564 10565 10566 10567
10686 10682 10678 10676 10672 10668 10664 10659 10654 10650 10647 10643 10641 10637 10631 10628 10623 10619 10613 10610 10607 10605 10601 10594 10590 10586 10582 10578 10576 10574 10569 10565 10561 10559 10559 10559 10559 10559 10560 10561 10562 10563 10563
10672 10669 10665 10662 10658 10653 10648 10643 10639 10635 10631 10627 10624 10620 10617 10613 10610 10605 10604 10600 10595 10592 10591 10590 10584 10580 10575 10571 10569 10567 10566 10562 10559 10557 10556 10556 10556 10556 10557 10557 10559 10560 10560
10658 10654 10650 10646 10642 10638 10634 10628 10624 10618 10615 10611 10607 10605 10600 10597 10595 10593 10591 10590 10586 10580 10575 10574 10575 10570 10567 10562 10560 10558 10558 10557 10554 10553 10551 10550 10550 10550 10551 10551 10552 10554 10555
10643 10638 10633 10629 10625 10621 10617 10612 10607 10602 10596 10591 10588 10584 10582 10579 10577 10577 10576 10575 10574 10568 10560 10558 10560 10559 10555 10553 10550 10547 10547 10548 10548 10546 10544 10543 10543 10543 10544 10545 10545 10547 10548
10626 10621 10617 10612 10608 10604 10598 10593 10588 10582 10577 10572 10568 10566 10564 10563 10560 10559 10558 10556 10555 10555 10552 10540 10542 10543 10544 10542 10540 10537 10535 10534 10536 10537 10536 10535 10534 10534 10535 10536 10537 10538 10540
10609 10604 10599 10594 10590 10584 10579 10573 10567 10562 10557 10552 10550 10547 10543 10544 10540 10539 10538 10537 10536 10535 10538 10525 10525 10526 10525 10528 10527 10524 10526 10524 10521 10522 10524 10525 10523 10523 10524 10525 10526 10527 10528
10590 10585 10580 10574 10569 10563 10557 10552 10547 10542 10539 10534 10531 10529 10525 10523 10520 10518 10518 10517 10517 10516 10519 10519 10508 10507 10507 10509 10511 10510 10508 10510 10509 10506 10506 10508 10510 10511 10510 10511 10513 10514 10515
10569 10563 10557 10552 10546 10540 10534 10530 10527 10522 10517 10514 10509 10506 10502 10501 10498 10495 10495 10494 10493 10494 10494 10498 10493 10488 10487 10487 10490 10492 10493 10491 10491 10492 10491 10490 10492 10495 10496 10495 10497 10499 10501
10546 10539 10533 10528 10522 10516 10511 10507 10503 10500 10495 10490 10486 10483 10480 10476 10475 10471 10470 10467 10468 10469 10468 10471 10473 10469 10465 10463 10467 10470 10473 10472 10470 10472 10474 10474 10474 10475 10478 10479 10480 10481 10483
10522 10516 10509 10502 10497 10492 10485 10481 10478 10474 10469 10464 10459 10456 10454 10450 10447 10445 10444 10438 10438 10439 10439 10440 10444 10443 10440 10439 10442 10445 10447 10447 10448 10449 10452 10454 10455 10455 10456 10459 10462 10464 10466
10496 10489 10482 10476 10470 10461 10453 10449 10445 10443 10437 10433 10428 10421 10419 10417 10415 10414 10412 10411 10407 10407 10409 10410 10413 10414 10410 10411 10412 10417 10419 10419 10422 10422 10428 10430 10431 10434 10436 10437 10440 10443 10446
10468 10460 10452 10445 10439 10429 10419 10412 10407 10404 10401 10395 10389 10386 10383 10377 10376 10375 10373 10373 10372 10373 10374 10376 10380 10380 10382 10379 10384 10386 10388 10390 10392 10393 10400 10402 10405 10406 10412 10414 10417 10419 10422
10438 10429 10421 10410 10403 10394 10381 10374 10366 10362 10358 10353 10347 10343 10341 10336 10329 10331 10331 10330 10329 10330 10334 10340 10342 10342 10344 10345 10350 10355 10355 10359 10363 10365 10369 10372 10374 10379 10384 10389 10391 10393 10396
10402 10393 10382 10374 10363 10356 10339 10329 10322 10318 10312 10306 10299 10295 10293 10291 10287 10283 10286 10286 10285 10281 10287 10295 10300 10304 10303 10304 10310 10316 10317 10325 10329 10333 10337 10343 10338 10348 10357 10359 10362 10366 10370
10367 10355 10345 10330 10319 10310 10296 10282 10273 10268 10266 10258 10253 10247 10241 10242 10241 10237 10235 10235 10238 10234 10238 10245 10252 10256 10259 10263 10268 10274 10278 10285 10290 10295 10297 10307 10309 10314 10322 10330 10333 10337 10342